Time,TemperatureF,DewpointF,PressureIn,WindDirection,WindDirectionDegrees,WindSpeedMPH,WindSpeedGustMPH,Humidity,HourlyPrecipIn,Conditions,Clouds,dailyrainin,SoftwareType,DateUTC
2013-04-23 00:02:00,34.0,33.0,29.00,NNE,27,11.0,-999.0,96,24.95,,,-99.99,,2013-04-23 05:02:00,
2013-04-23 00:12:00,34.0,33.0,29.00,NNE,27,11.0,-999.0,96,24.95,,,-99.99,,2013-04-23 05:12:00,
2013-04-23 00:22:00,33.0,32.0,28.98,North,4,8.0,-999.0,97,24.95,,,-99.99,,2013-04-23 05:22:00,
2013-04-23 00:32:00,33.0,32.0,28.98,North,4,8.0,-999.0,97,24.95,,,-99.99,,2013-04-23 05:32:00,
2013-04-23 00:42:00,33.0,32.0,28.98,North,4,8.0,-999.0,97,24.95,,,-99.99,,2013-04-23 05:42:00,
2013-04-23 00:52:00,33.0,32.0,28.99,NW,308,14.0,-999.0,97,24.95,,,-99.99,,2013-04-23 05:52:00,
2013-04-23 01:01:00,33.0,32.0,28.99,NW,308,14.0,-999.0,97,24.95,,,-99.99,,2013-04-23 06:01:00,
2013-04-23 01:12:00,33.0,32.0,28.99,NW,308,14.0,-999.0,97,24.95,,,-99.99,,2013-04-23 06:12:00,
2013-04-23 01:21:00,33.0,32.0,28.99,NE,38,9.0,-999.0,97,24.95,,,-99.99,,2013-04-23 06:21:00,
2013-04-23 01:33:00,33.0,32.0,28.99,NE,38,9.0,-999.0,97,24.95,,,-99.99,,2013-04-23 06:33:00,
2013-04-23 01:42:00,33.0,32.0,28.99,NE,38,9.0,-999.0,97,24.95,,,-99.99,,2013-04-23 06:42:00,
2013-04-23 01:52:00,32.0,31.0,28.96,NW,312,14.0,-999.0,97,24.95,,,-99.99,,2013-04-23 06:52:00,
2013-04-23 02:02:00,32.0,31.0,28.96,NW,312,14.0,-999.0,97,24.95,,,-99.99,,2013-04-23 07:02:00,
2013-04-23 02:11:00,32.0,31.0,28.96,NW,312,14.0,-999.0,97,24.95,,,-99.99,,2013-04-23 07:11:00,
2013-04-23 02:21:00,31.0,30.0,28.98,North,359,5.0,-999.0,96,24.95,,,-99.99,,2013-04-23 07:21:00,
2013-04-23 02:32:00,31.0,30.0,28.98,North,359,5.0,-999.0,96,24.95,,,-99.99,,2013-04-23 07:32:00,
2013-04-23 02:42:00,31.0,30.0,28.98,North,359,5.0,-999.0,96,24.95,,,-99.99,,2013-04-23 07:42:00,
2013-04-23 02:52:00,31.0,30.0,28.96,North,359,10.0,-999.0,96,24.95,,,-99.99,,2013-04-23 07:52:00,
2013-04-23 03:02:00,31.0,30.0,28.96,North,359,10.0,-999.0,96,24.95,,,-99.99,,2013-04-23 08:02:00,
2013-04-23 03:11:00,31.0,30.0,28.96,North,359,10.0,-999.0,96,24.95,,,-99.99,,2013-04-23 08:11:00,
2013-04-23 03:21:00,31.0,30.0,29.03,NW,319,13.0,-999.0,96,24.95,,,-99.99,,2013-04-23 08:21:00,
2013-04-23 03:32:00,31.0,30.0,29.03,NW,319,13.0,-999.0,96,24.95,,,-99.99,,2013-04-23 08:32:00,
2013-04-23 03:42:00,31.0,30.0,29.03,NW,319,13.0,-999.0,96,24.95,,,-99.99,,2013-04-23 08:42:00,
2013-04-23 03:52:00,31.0,30.0,29.02,NNW,335,9.0,-999.0,96,24.95,,,-99.99,,2013-04-23 08:52:00,
2013-04-23 04:01:00,31.0,30.0,29.02,NNW,335,9.0,-999.0,96,24.95,,,-99.99,,2013-04-23 09:01:00,
2013-04-23 04:11:00,31.0,30.0,29.02,NNW,335,9.0,-999.0,96,24.95,,,-99.99,,2013-04-23 09:11:00,
2013-04-23 04:21:00,31.0,30.0,29.01,NNW,335,8.0,-999.0,96,24.95,,,-99.99,,2013-04-23 09:21:00,
2013-04-23 04:33:00,31.0,30.0,29.01,NNW,335,8.0,-999.0,96,24.95,,,-99.99,,2013-04-23 09:33:00,
2013-04-23 04:43:00,31.0,30.0,29.01,NNW,335,8.0,-999.0,96,24.95,,,-99.99,,2013-04-23 09:43:00,
2013-04-23 04:53:00,30.0,29.0,29.00,North,359,6.0,-999.0,96,24.95,,,-99.99,,2013-04-23 09:53:00,
2013-04-23 05:02:00,30.0,29.0,29.00,North,359,6.0,-999.0,96,24.95,,,-99.99,,2013-04-23 10:02:00,
2013-04-23 05:13:00,30.0,29.0,29.00,North,359,6.0,-999.0,96,24.95,,,-99.99,,2013-04-23 10:13:00,
2013-04-23 05:22:00,30.0,29.0,29.00,NNW,338,10.0,-999.0,95,24.95,,,-99.99,,2013-04-23 10:22:00,
2013-04-23 05:33:00,30.0,29.0,29.00,NNW,338,10.0,-999.0,95,24.95,,,-99.99,,2013-04-23 10:33:00,
2013-04-23 05:42:00,30.0,29.0,29.00,NNW,338,10.0,-999.0,95,24.95,,,-99.99,,2013-04-23 10:42:00,
2013-04-23 05:52:00,30.0,29.0,28.98,NNW,343,12.0,-999.0,95,24.95,,,-99.99,,2013-04-23 10:52:00,
2013-04-23 06:02:00,30.0,29.0,28.98,NNW,343,12.0,-999.0,95,24.95,,,-99.99,,2013-04-23 11:02:00,
2013-04-23 06:12:00,30.0,29.0,28.95,NNW,347,9.0,-999.0,95,24.95,,,-99.99,,2013-04-23 11:12:00,
2013-04-23 06:21:00,30.0,29.0,28.95,NNW,347,9.0,-999.0,95,24.95,,,-99.99,,2013-04-23 11:21:00,
2013-04-23 06:32:00,30.0,29.0,28.95,NNW,347,9.0,-999.0,95,24.95,,,-99.99,,2013-04-23 11:32:00,
2013-04-23 06:43:00,30.0,28.0,28.95,NNW,345,12.0,-999.0,94,24.95,,,-99.99,,2013-04-23 11:43:00,
2013-04-23 06:53:00,30.0,28.0,28.95,NNW,345,12.0,-999.0,94,24.95,,,-99.99,,2013-04-23 11:53:00,
2013-04-23 07:02:00,30.0,28.0,28.95,NNW,345,12.0,-999.0,94,24.95,,,-99.99,,2013-04-23 12:02:00,
2013-04-23 07:12:00,30.0,28.0,28.95,NNW,345,12.0,-999.0,94,24.95,,,-99.99,,2013-04-23 12:12:00,
2013-04-23 07:22:00,30.0,28.0,28.99,NNW,332,12.0,-999.0,94,24.95,,,-99.99,,2013-04-23 12:22:00,
2013-04-23 07:32:00,30.0,28.0,28.99,NNW,332,12.0,-999.0,94,24.95,,,-99.99,,2013-04-23 12:32:00,
2013-04-23 07:42:00,30.0,28.0,28.99,NNW,332,12.0,-999.0,94,24.95,,,-99.99,,2013-04-23 12:42:00,
2013-04-23 07:52:00,30.0,28.0,28.98,North,3,12.0,-999.0,94,24.95,,,-99.99,,2013-04-23 12:52:00,
2013-04-23 08:01:00,30.0,28.0,28.98,North,3,12.0,-999.0,94,24.95,,,-99.99,,2013-04-23 13:01:00,
2013-04-23 08:11:00,30.0,28.0,28.98,North,3,12.0,-999.0,94,24.95,,,-99.99,,2013-04-23 13:11:00,
2013-04-23 08:21:00,30.0,29.0,28.98,North,359,13.0,-999.0,95,24.95,,,-99.99,,2013-04-23 13:21:00,
2013-04-23 08:32:00,30.0,29.0,28.98,North,359,13.0,-999.0,95,24.95,,,-99.99,,2013-04-23 13:32:00,
2013-04-23 08:42:00,30.0,29.0,28.98,North,359,13.0,-999.0,95,24.95,,,-99.99,,2013-04-23 13:42:00,
2013-04-23 08:52:00,31.0,30.0,28.98,NE,38,6.0,-999.0,95,24.95,,,-99.99,,2013-04-23 13:52:00,
2013-04-23 09:01:00,31.0,30.0,28.98,NE,38,6.0,-999.0,95,24.95,,,-99.99,,2013-04-23 14:01:00,
2013-04-23 09:11:00,31.0,30.0,28.98,NE,38,6.0,-999.0,95,24.95,,,-99.99,,2013-04-23 14:11:00,
2013-04-23 09:22:00,31.0,29.0,29.00,ENE,60,5.0,-999.0,93,24.95,,,-99.99,,2013-04-23 14:22:00,
2013-04-23 09:32:00,31.0,29.0,29.00,ENE,60,5.0,-999.0,93,24.95,,,-99.99,,2013-04-23 14:32:00,
2013-04-23 09:42:00,31.0,29.0,29.00,ENE,60,5.0,-999.0,93,24.95,,,-99.99,,2013-04-23 14:42:00,
2013-04-23 09:52:00,31.0,29.0,29.00,NNW,336,8.0,-999.0,92,24.95,,,-99.99,,2013-04-23 14:52:00,
2013-04-23 10:01:00,31.0,29.0,29.00,NNW,336,8.0,-999.0,92,24.95,,,-99.99,,2013-04-23 15:01:00,
2013-04-23 10:12:00,31.0,29.0,29.00,NNW,336,8.0,-999.0,92,24.95,,,-99.99,,2013-04-23 15:12:00,
2013-04-23 10:21:00,32.0,30.0,29.00,NNE,13,8.0,-999.0,91,24.95,,,-99.99,,2013-04-23 15:21:00,
2013-04-23 10:32:00,32.0,30.0,29.00,NNE,13,8.0,-999.0,91,24.95,,,-99.99,,2013-04-23 15:32:00,
2013-04-23 10:43:00,32.0,30.0,29.00,NNE,13,8.0,-999.0,91,24.95,,,-99.99,,2013-04-23 15:43:00,
2013-04-23 10:53:00,32.0,29.0,28.99,NNE,23,7.0,-999.0,90,24.95,,,-99.99,,2013-04-23 15:53:00,
2013-04-23 11:02:00,32.0,29.0,28.99,NNE,23,7.0,-999.0,90,24.95,,,-99.99,,2013-04-23 16:02:00,
2013-04-23 11:12:00,32.0,29.0,28.99,NNE,23,7.0,-999.0,90,24.95,,,-99.99,,2013-04-23 16:12:00,
2013-04-23 11:23:00,33.0,30.0,29.00,NNW,329,17.0,-999.0,89,24.95,,,-99.99,,2013-04-23 16:23:00,
2013-04-23 11:34:00,33.0,30.0,29.00,NNW,329,17.0,-999.0,89,24.95,,,-99.99,,2013-04-23 16:34:00,
2013-04-23 11:43:00,33.0,30.0,29.00,NNW,329,17.0,-999.0,89,24.95,,,-99.99,,2013-04-23 16:43:00,
2013-04-23 11:53:00,33.0,30.0,28.99,North,359,8.0,-999.0,87,24.95,,,-99.99,,2013-04-23 16:53:00,
2013-04-23 12:02:00,33.0,30.0,28.99,North,359,8.0,-999.0,87,24.95,,,-99.99,,2013-04-23 17:02:00,
2013-04-23 12:11:00,33.0,30.0,28.99,NW,314,18.0,-999.0,90,24.95,,,-99.99,,2013-04-23 17:11:00,
2013-04-23 12:22:00,33.0,30.0,28.99,NW,314,18.0,-999.0,90,24.95,,,-99.99,,2013-04-23 17:22:00,
2013-04-23 12:33:00,33.0,30.0,28.99,NW,314,18.0,-999.0,90,24.95,,,-99.99,,2013-04-23 17:33:00,
2013-04-23 12:43:00,33.0,30.0,28.99,NW,314,18.0,-999.0,90,24.95,,,-99.99,,2013-04-23 17:43:00,
2013-04-23 12:53:00,33.0,30.0,28.98,NNW,345,11.0,-999.0,90,24.95,,,-99.99,,2013-04-23 17:53:00,
2013-04-23 13:02:00,33.0,30.0,28.98,NNW,345,11.0,-999.0,90,24.95,,,-99.99,,2013-04-23 18:02:00,
2013-04-23 13:12:00,33.0,30.0,28.98,NNW,345,11.0,-999.0,90,24.95,,,-99.99,,2013-04-23 18:12:00,
2013-04-23 13:22:00,35.0,32.0,28.98,NNW,338,10.0,-999.0,89,24.95,,,-99.99,,2013-04-23 18:22:00,
2013-04-23 13:32:00,35.0,32.0,28.98,NNW,338,10.0,-999.0,89,24.95,,,-99.99,,2013-04-23 18:32:00,
2013-04-23 13:42:00,35.0,32.0,28.98,NNW,338,10.0,-999.0,89,24.95,,,-99.99,,2013-04-23 18:42:00,
2013-04-23 13:52:00,35.0,32.0,28.97,NW,318,11.0,-999.0,89,24.95,,,-99.99,,2013-04-23 18:52:00,
2013-04-23 14:02:00,35.0,32.0,28.97,NW,318,11.0,-999.0,89,24.95,,,-99.99,,2013-04-23 19:02:00,
2013-04-23 14:11:00,35.0,32.0,28.97,NW,318,11.0,-999.0,89,24.95,,,-99.99,,2013-04-23 19:11:00,
2013-04-23 14:21:00,36.0,32.0,28.96,WNW,298,14.0,-999.0,85,24.95,,,-99.99,,2013-04-23 19:21:00,
2013-04-23 14:32:00,36.0,32.0,28.96,WNW,298,14.0,-999.0,85,24.95,,,-99.99,,2013-04-23 19:32:00,
2013-04-23 14:42:00,36.0,32.0,28.96,WNW,298,14.0,-999.0,85,24.95,,,-99.99,,2013-04-23 19:42:00,
2013-04-23 14:52:00,37.0,33.0,28.96,NW,316,12.0,-999.0,84,24.95,,,-99.99,,2013-04-23 19:52:00,
2013-04-23 15:01:00,37.0,33.0,28.96,NW,316,12.0,-999.0,84,24.95,,,-99.99,,2013-04-23 20:01:00,
2013-04-23 15:11:00,37.0,33.0,28.96,NW,316,12.0,-999.0,84,24.95,,,-99.99,,2013-04-23 20:11:00,
2013-04-23 15:21:00,37.0,33.0,28.95,NNW,333,12.0,-999.0,85,24.95,,,-99.99,,2013-04-23 20:21:00,
2013-04-23 15:32:00,37.0,33.0,28.95,NNW,333,12.0,-999.0,85,24.95,,,-99.99,,2013-04-23 20:32:00,
2013-04-23 15:42:00,37.0,33.0,28.95,NNW,333,12.0,-999.0,85,24.95,,,-99.99,,2013-04-23 20:42:00,
2013-04-23 15:52:00,37.0,33.0,28.95,NNW,335,11.0,-999.0,85,24.95,,,-99.99,,2013-04-23 20:52:00,
2013-04-23 16:01:00,37.0,33.0,28.95,NNW,335,11.0,-999.0,85,24.95,,,-99.99,,2013-04-23 21:01:00,
2013-04-23 16:12:00,38.0,34.0,28.95,WNW,295,15.0,-999.0,85,24.95,,,-99.99,,2013-04-23 21:12:00,
2013-04-23 16:21:00,38.0,34.0,28.95,WNW,295,15.0,-999.0,85,24.95,,,-99.99,,2013-04-23 21:21:00,
2013-04-23 16:33:00,38.0,34.0,28.95,WNW,295,15.0,-999.0,85,24.95,,,-99.99,,2013-04-23 21:33:00,
2013-04-23 16:43:00,38.0,34.0,28.95,WNW,295,15.0,-999.0,85,24.95,,,-99.99,,2013-04-23 21:43:00,
2013-04-23 16:52:00,37.0,32.0,28.95,NNW,333,9.0,-999.0,83,24.95,,,-99.99,,2013-04-23 21:52:00,
2013-04-23 17:03:00,37.0,32.0,28.95,NNW,333,9.0,-999.0,83,24.95,,,-99.99,,2013-04-23 22:03:00,
2013-04-23 17:12:00,37.0,32.0,28.95,NNW,333,9.0,-999.0,83,24.95,,,-99.99,,2013-04-23 22:12:00,
2013-04-23 17:22:00,37.0,33.0,28.94,NNW,339,13.0,-999.0,85,24.95,,,-99.99,,2013-04-23 22:22:00,
2013-04-23 17:33:00,37.0,33.0,28.94,NNW,339,13.0,-999.0,85,24.95,,,-99.99,,2013-04-23 22:33:00,
2013-04-23 17:42:00,37.0,33.0,28.94,NNW,339,13.0,-999.0,85,24.95,,,-99.99,,2013-04-23 22:42:00,
2013-04-23 17:52:00,37.0,32.0,28.93,North,10,10.0,-999.0,82,24.95,,,-99.99,,2013-04-23 22:52:00,
2013-04-23 18:02:00,37.0,32.0,28.93,North,10,10.0,-999.0,82,24.95,,,-99.99,,2013-04-23 23:02:00,
2013-04-23 18:12:00,37.0,32.0,28.93,North,10,10.0,-999.0,82,24.95,,,-99.99,,2013-04-23 23:12:00,
2013-04-23 18:22:00,37.0,31.0,28.94,North,359,7.0,-999.0,80,24.95,,,-99.99,,2013-04-23 23:22:00,
2013-04-23 18:32:00,37.0,31.0,28.94,North,359,7.0,-999.0,80,24.95,,,-99.99,,2013-04-23 23:32:00,
2013-04-23 18:42:00,37.0,32.0,28.94,NNW,336,5.0,-999.0,82,24.95,,,-99.99,,2013-04-23 23:42:00,
2013-04-23 18:52:00,37.0,32.0,28.94,NNW,336,5.0,-999.0,82,24.95,,,-99.99,,2013-04-23 23:52:00,
2013-04-23 19:01:00,37.0,32.0,28.94,NNW,336,5.0,-999.0,82,24.95,,,-99.99,,2013-04-24 00:01:00,
2013-04-23 19:11:00,37.0,32.0,28.94,NNW,336,5.0,-999.0,82,24.95,,,-99.99,,2013-04-24 00:11:00,
2013-04-23 19:21:00,36.0,31.0,28.94,North,359,5.0,-999.0,82,24.95,,,-99.99,,2013-04-24 00:21:00,
2013-04-23 19:32:00,36.0,31.0,28.94,North,359,5.0,-999.0,82,24.95,,,-99.99,,2013-04-24 00:32:00,
2013-04-23 19:42:00,36.0,31.0,28.94,North,359,5.0,-999.0,82,24.95,,,-99.99,,2013-04-24 00:42:00,
2013-04-23 19:52:00,36.0,30.0,28.94,NNW,342,9.0,-999.0,80,24.95,,,-99.99,,2013-04-24 00:52:00,
2013-04-23 20:01:00,36.0,30.0,28.94,NNW,342,9.0,-999.0,80,24.95,,,-99.99,,2013-04-24 01:01:00,
2013-04-23 20:11:00,36.0,30.0,28.94,NNW,342,9.0,-999.0,80,24.95,,,-99.99,,2013-04-24 01:11:00,
2013-04-23 20:21:00,35.0,31.0,28.95,North,359,3.0,-999.0,84,24.95,,,-99.99,,2013-04-24 01:21:00,
2013-04-23 20:32:00,35.0,31.0,28.95,North,359,3.0,-999.0,84,24.95,,,-99.99,,2013-04-24 01:32:00,
2013-04-23 20:43:00,35.0,31.0,28.95,North,359,3.0,-999.0,84,24.95,,,-99.99,,2013-04-24 01:43:00,
2013-04-23 20:52:00,34.0,30.0,28.95,NW,326,10.0,-999.0,86,24.95,,,-99.99,,2013-04-24 01:52:00,
2013-04-23 21:02:00,34.0,30.0,28.95,NW,326,10.0,-999.0,86,24.95,,,-99.99,,2013-04-24 02:02:00,
2013-04-23 21:17:00,33.0,31.0,28.96,NNW,342,6.0,-999.0,91,24.95,,,-99.99,,2013-04-24 02:17:00,
2013-04-23 21:27:00,33.0,31.0,28.96,NNW,342,6.0,-999.0,91,24.95,,,-99.99,,2013-04-24 02:27:00,
2013-04-23 21:42:00,33.0,31.0,28.96,NNW,342,6.0,-999.0,91,24.95,,,-99.99,,2013-04-24 02:42:00,
2013-04-23 21:50:00,33.0,31.0,28.96,NNW,342,6.0,-999.0,91,24.95,,,-99.99,,2013-04-24 02:50:00,
2013-04-23 22:16:00,32.0,30.0,28.96,NNW,347,5.0,-999.0,91,24.95,,,-99.99,,2013-04-24 03:16:00,
2013-04-23 22:27:00,31.0,29.0,28.97,NW,316,5.0,-999.0,93,24.95,,,-99.99,,2013-04-24 03:27:00,
2013-04-23 22:53:00,31.0,29.0,28.97,NW,316,5.0,-999.0,93,24.95,,,-99.99,,2013-04-24 03:53:00,
2013-04-23 23:00:00,31.0,29.0,28.97,NW,325,0.0,-999.0,93,24.95,,,-99.99,,2013-04-24 04:00:00,
2013-04-23 23:03:00,31.0,29.0,28.97,NW,325,0.0,-999.0,93,24.95,,,-99.99,,2013-04-24 04:03:00,
2013-04-23 23:12:00,31.0,29.0,28.97,NW,325,0.0,-999.0,93,24.95,,,-99.99,,2013-04-24 04:12:00,
2013-04-23 23:23:00,31.0,29.0,28.96,WNW,291,0.0,-999.0,93,24.95,,,-99.99,,2013-04-24 04:23:00,
2013-04-23 23:33:00,31.0,29.0,28.96,WNW,291,0.0,-999.0,93,24.95,,,-99.99,,2013-04-24 04:33:00,
2013-04-23 23:43:00,31.0,29.0,28.96,WNW,291,0.0,-999.0,93,24.95,,,-99.99,,2013-04-24 04:43:00,
2013-04-23 23:53:00,30.0,28.0,28.97,NW,319,0.0,-999.0,94,24.95,,,-99.99,,2013-04-24 04:53:00,